Location: Ingoldesthorpe
(52.8667°N, 0.5167°E)
Time: 21:32:47
(UTC+00:00)

Cosmos 1420 Rocket - Pass Details

Date: 19 May 2025
Orbit: 750 x 777 km, 74.0° (Epoch: 18 June)

Event Time Altitude Azimuth Distance (km) Brightness Sun altitude
Rises 23:32:45 0° 334° (NNW) 3,272 8.6 -17.0°
Reaches altitude 10° 23:35:09 10° 334° (NNW) 2,340 7.6 -17.0°
Maximum altitude 23:40:29 88° 63° (ENE) 784 4.0 -17.1°
Enters shadow 23:43:28 27° 154° (SSE) 1,458 4.9 -17.1°
